This is the latest recevied weather packets stored in our database for station/object I1SXT-13. If no packets are shown the sender has not sent any weather packets the latest 10 day(s).
| Time | Temp. | Humidity | Pressure | Rain* | Wind** | Luminosity | Snow |
|---|---|---|---|---|---|---|---|
| 1777463066 | 21.67° C | 48% | 1015.9 hPa | 0 mm | - | - | - |
| 1777462769 | 22.22° C | 47% | 1016.4 hPa | 0 mm | - | - | - |
| 1777462465 | 21.67° C | 49% | 1016.2 hPa | 0 mm | - | - | - |
| 1777462167 | 21.67° C | 51% | 1016.4 hPa | 0 mm | - | - | - |
| 1777461870 | 21.67° C | 52% | 1016 hPa | 0 mm | - | - | - |
| 1777461566 | 21.11° C | 52% | 1016 hPa | 0 mm | - | - | - |
| 1777460668 | 20.56° C | 51% | 1016.6 hPa | 0 mm | - | - | - |
| 1777460364 | 20.56° C | 48% | 1016.4 hPa | 0 mm | - | - | - |
| 1777460067 | 21.11° C | 51% | 1016.3 hPa | 0 mm | - | - | - |
| 1777459465 | 20.56° C | 49% | 1016.5 hPa | 0 mm | - | - | - |
| 1777459168 | 20.56° C | 52% | 1016.3 hPa | 0 mm | - | - | - |
| 1777458864 | 20° C | 49% | 1016.8 hPa | 0 mm | - | - | - |
| 1777458567 | 20.56° C | 48% | 1016.8 hPa | 0 mm | - | - | - |
| 1777458270 | 20.56° C | 49% | 1016 hPa | 0 mm | - | - | - |
| 1777457966 | 20.56° C | 48% | 1017 hPa | 0 mm | - | - | - |
| 1777457668 | 20° C | 47% | 1016.8 hPa | 0 mm | - | - | - |
| 1777457364 | 20° C | 46% | 1016.7 hPa | 0 mm | - | - | - |
| 1777457067 | 20° C | 46% | 1017.1 hPa | 0 mm | - | - | - |
| 1777456770 | 20° C | 47% | 1017.1 hPa | 0 mm | - | - | - |
| 1777456466 | 20° C | 46% | 1017.2 hPa | 0 mm | - | - | - |
| 1777455865 | 20° C | 47% | 1017.1 hPa | 0 mm | - | - | - |
| 1777455568 | 20° C | 45% | 1017.5 hPa | 0 mm | - | - | - |
| 1777455263 | 20° C | 50% | 1017.8 hPa | 0 mm | - | - | - |
| 1777454966 | 19.44° C | 47% | 1017.2 hPa | 0 mm | - | - | - |
| 1777454669 | 19.44° C | 46% | 1017.4 hPa | 0 mm | - | - | - |
* Rain since midnight (hover to see other rain measurements)
** Current wind speed in m/s (hover to see current wind gust speed)